Location: Hamilton
(37.7830°S, 175.2830°E)
Time: 16:31:44
(UTC+12:00)

MOS 1 - Pass Details

Date: 24 January 2019
Orbit: 879 x 891 km, 99.2° (Epoch: 17 April)

Event Time Altitude Azimuth Distance (km) Brightness Sun altitude
Rises 21:10:46 0° 166° (SSE) 3,536 7.7 -6.5°
Reaches altitude 10° 21:13:12 10° 164° (SSE) 2,590 6.9 -6.9°
Maximum altitude 21:18:59 82° 76° (ENE) 912 4.3 -7.9°
Drops below altitude 10° 21:24:42 10° 348° (NNW) 2,554 6.5 -8.8°
Sets 21:27:05 0° 347° (NNW) 3,484 7.2 -9.2°
